www.pogodaiklimat.ru

Погода и климат >> Архив погоды >> Австралия >> Западная Австралия >> Остров Роттнест


ПОГОДА на Острове Роттнест

  • Прогноз погоды на Острове Роттнест
  • Монитор погоды на Острове Роттнест

АРХИВ ПОГОДЫ на Острове Роттнест

Время (UTC), дата Ветер
(напр.,м/с)
 
Видим.   Явления Облачность Т
(С)
Тd
(С)
f
(%)
Тe
(С)
Тes
(С)
Комфортность P
(гПа)
Po
(гПа)
Тmin
(С)
Tmax
(С)
R
(мм)
R24
(мм)
S
(см)
16 18.05 В 4 н/о н/о +12.5 +7.0 69 +11 +11 1021.8 1016.7
18 18.05 СВ 6 н/о н/о +12.7 +5.8 63 +10 +10 1021.2 1016.1
19 18.05 СВ 6 н/о н/о +12.8 +5.7 62 +11 +11 1021.0 1015.9
21 18.05 СВ 5 н/о н/о +11.9 +6.0 67 +10 +10 1020.4 1015.3
22 18.05 СВ 6 н/о н/о +11.7 +6.0 68 +9 +9 1019.9 1014.8
00 19.05 СВ 8 н/о н/о +12.6 +6.2 65 +10 +10 1020.1 1015.0
01 19.05 СВ 7 н/о н/о +13.7 +6.1 60 +11 +11 1020.1 1015.0 +11.3
03 19.05 С 7 н/о н/о +16.2 +6.3 52 +15 +15 1019.5 1014.4
04 19.05 С 6 н/о н/о +17.2 +5.2 45 +16 +16 1018.4 1013.3
06 19.05 С 7 н/о н/о +19.3 +4.6 38 +19 +19 1016.1 1011.0
07 19.05 С 6 н/о н/о +18.8 +3.8 37 +19 +19 1015.3 1010.2
09 19.05 С 4 н/о н/о +17.2 +5.2 45 +17 +17 1014.3 1009.2
10 19.05 СЗ 4 н/о н/о +17.0 +5.6 47 +17 +17 1014.7 1009.6
12 19.05 С 5 н/о н/о +18.4 +8.4 52 +18 +18 1014.3 1009.2
13 19.05 С 7 н/о н/о +18.7 +9.2 54 +19 +19 1013.9 1008.8 +20.1
15 19.05 С 9 н/о н/о +19.0 +12.7 67 +19 +19 1013.3 1008.2
16 19.05 С 10 н/о н/о +19.5 +13.9 70 +20 +20 1012.9 1007.8
18 19.05 СЗ 9 н/о н/о +20.1 +15.7 76 +22 +22 комфорт 1012.4 1007.3
19 19.05 СЗ 9 н/о н/о +20.1 +15.9 77 +22 +22 комфорт 1011.8 1006.7
21 19.05 ЮЗ 8 н/о н/о +17.9 +15.0 83 +17 +17 1013.0 1007.9
22 19.05 ЮЗ 7 н/о {туман} н/о +17.9 +14.0 78 +17 +17 1013.6 1008.5
00 20.05 З 6 н/о н/о +17.4 +11.2 67 +17 +17 1015.9 1010.8
01 20.05 ЮЗ 7 н/о {туман} н/о +18.4 +10.5 60 +18 +18 1016.4 1011.3 +12.7
03 20.05 З 7 н/о н/о +19.4 +7.8 47 +20 +20 1017.4 1012.3
04 20.05 ЮЗ 8 н/о н/о +19.5 +10.5 56 +20 +20 1017.1 1012.0
06 20.05 ЮЗ 7 н/о н/о +19.6 +10.6 56 +20 +20 1017.0 1011.9
07 20.05 ЮЗ 7 н/о н/о +18.6 +10.7 60 +18 +18 1017.6 1012.5
09 20.05 ЮЗ 6 н/о н/о +17.7 +9.8 60 +17 +17 1018.4 1013.3
10 20.05 ЮЗ 6 н/о н/о +17.1 +10.5 65 +16 +16 1019.1 1014.0
12 20.05 ЮЗ 5 н/о н/о +16.5 +11.4 72 +16 +16 1020.0 1014.9
13 20.05 ЮЗ 4 н/о н/о +16.4 +11.6 73 +16 +16 1020.4 1015.3 +21.1
15 20.05 ЮЗ 3 н/о н/о +16.2 +11.2 72 +16 +16 1020.9 1015.8
16 20.05 СЗ 4 н/о в посл. час дождь {туман} н/о +14.6 +12.5 87 +13 +13 1021.1 1016.0
18 20.05 СЗ 4 н/о н/о +14.6 +13.5 93 +13 +13 1020.8 1015.7
19 20.05 СЗ 2 н/о {туман} н/о +15.6 +12.7 83 +16 +16 1020.9 1015.8
21 20.05 СЗ 2 н/о н/о +15.9 +10.7 71 +16 +16 1021.1 1016.0
22 20.05 С 2 н/о н/о +15.4 +12.3 82 +15 +15 1021.5 1016.4
00 21.05 С 5 н/о н/о +15.4 +13.1 86 +14 +14 1022.7 1017.6
01 21.05 С 5 н/о н/о +16.5 +13.4 82 +16 +16 1023.3 1018.2 +14.1
03 21.05 С 1 н/о н/о +15.7 +13.0 84 +17 +17 1023.4 1018.3
04 21.05 С 2 н/о в посл. час дождь {туман} н/о +16.2 +13.7 85 +16 +16 1022.9 1017.8
06 21.05 С 3 н/о н/о +19.2 +12.7 66 +21 +21 комфорт 1022.1 1017.0
07 21.05 СЗ 3 н/о {туман} н/о +18.7 +12.9 69 +20 +20 1022.2 1017.1
09 21.05 СЗ 3 н/о н/о +18.3 +11.8 66 +19 +19 1022.3 1017.2
10 21.05 З 3 н/о н/о +16.3 +9.7 65 +16 +16 1022.5 1017.4
12 21.05 Ю 4 н/о н/о +16.1 +9.3 64 +16 +16 1022.9 1017.8
13 21.05 Ю 3 н/о н/о +17.1 +9.3 60 +17 +17 1023.2 1018.1 +20.1
15 21.05 Ю 3 н/о н/о +17.1 +9.3 60 +17 +17 1023.1 1018.0
16 21.05 ЮВ 3 н/о н/о +16.3 +11.5 73 +16 +16 1023.1 1018.0
18 21.05 В 4 н/о н/о +15.3 +11.3 77 +14 +14 1022.9 1017.8
19 21.05 В 3 н/о н/о +14.8 +11.2 79 +14 +14 1022.9 1017.8
21 21.05 В 4 н/о н/о +14.7 +11.1 79 +14 +14 1022.4 1017.3
22 21.05 В 5 н/о н/о +14.3 +10.7 79 +13 +13 1022.6 1017.5
00 22.05 СВ 4 н/о н/о +15.2 +11.0 76 +14 +14 1023.1 1018.0
01 22.05 СВ 5 н/о н/о +16.5 +11.2 71 +16 +16 1023.4 1018.3 +14.2
03 22.05 СВ 6 н/о н/о +18.1 +9.7 58 +18 +18 1022.6 1017.5
04 22.05 СВ 5 н/о н/о +19.3 +9.5 53 +20 +20 1021.8 1016.7
06 22.05 Ю 4 н/о н/о +19.4 +8.4 49 +20 +20 1020.5 1015.4
07 22.05 Ю 3 н/о н/о +19.6 +9.2 51 +21 +21 комфорт 1020.1 1015.0
09 22.05 Ю 3 н/о н/о +18.3 +9.4 56 +19 +19 1020.8 1015.7
10 22.05 ЮЗ 3 н/о н/о +17.0 +9.2 60 +17 +17 1020.8 1015.7
12 22.05 Ю 4 н/о н/о +17.1 +10.0 63 +17 +17 1022.0 1016.9
13 22.05 Ю 4 н/о н/о +16.9 +10.1 64 +16 +16 1022.3 1017.2 +21.1
15 22.05 ЮЗ 3 н/о н/о +17.5 +9.7 60 +17 +17 1022.4 1017.3
16 22.05 ЮЗ 4 н/о н/о +17.7 +8.6 55 +17 +17 1022.0 1016.9
18 22.05 В 3 н/о н/о +16.4 +11.6 73 +16 +16 1022.0 1016.9
19 22.05 В 3 н/о н/о +16.5 +11.9 74 +16 +16 1022.2 1017.1
21 22.05 Ю 4 н/о н/о +17.0 +11.3 69 +17 +17 1022.4 1017.3
22 22.05 ЮЗ 2 н/о н/о +17.5 +11.1 66 +18 +18 1022.9 1017.8
00 23.05 С 4 н/о н/о +17.2 +12.7 75 +17 +17 1023.5 1018.4
01 23.05 С 4 н/о н/о +17.7 +13.0 74 +18 +18 1024.1 1019.0 +15.2
03 23.05 С 4 н/о н/о +18.7 +12.7 68 +19 +19 1024.3 1019.2
04 23.05 Ю 3 н/о н/о +19.5 +12.8 65 +21 +21 комфорт 1023.9 1018.8
06 23.05 Ю 4 н/о н/о +19.2 +11.5 61 +20 +20 1022.8 1017.7
07 23.05 Ю 4 н/о н/о +19.5 +11.3 59 +21 +21 комфорт 1022.8 1017.7
09 23.05 Ю 3 н/о н/о +18.1 +11.4 65 +18 +18 1023.2 1018.1
10 23.05 ЮЗ 3 н/о н/о +17.3 +10.9 66 +17 +17 1023.4 1018.3
12 23.05 ЮЗ 3 н/о н/о +16.9 +10.3 65 +17 +17 1024.0 1018.9
13 23.05 ЮЗ 3 н/о н/о +17.0 +10.1 64 +17 +17 1024.2 1019.1 +20.3
15 23.05 ЮЗ 3 н/о н/о +16.5 +10.1 66 +16 +16 1023.4 1018.3
16 23.05 ЮЗ 3 н/о н/о +16.5 +9.9 65 +16 +16 1023.6 1018.5
18 23.05 ЮЗ 5 н/о н/о +16.4 +10.7 69 +15 +15 1023.4 1018.3
19 23.05 ЮЗ 6 н/о н/о +16.6 +9.8 64 +16 +16 1023.3 1018.2
21 23.05 Ю 4 н/о н/о +16.7 +10.8 68 +16 +16 1022.6 1017.5
22 23.05 Ю 5 н/о н/о +16.4 +10.7 69 +15 +15 1022.5 1017.4
00 24.05 СВ 1 н/о н/о +16.3 +12.5 78 +18 +18 1023.8 1018.7
01 24.05 СВ 3 н/о н/о +17.0 +13.5 80 +17 +17 1024.5 1019.4 +15.3
03 24.05 СВ 3 н/о н/о +18.5 +12.7 69 +19 +19 1024.4 1019.3
04 24.05 С 4 н/о н/о +20.3 +13.5 65 +23 +23 комфорт 1023.9 1018.8
06 24.05 ЮЗ 3 н/о н/о +20.1 +11.3 57 +22 +22 комфорт 1023.4 1018.3
07 24.05 ЮЗ 4 н/о н/о +19.0 +10.3 57 +20 +20 1023.3 1018.2
09 24.05 ЮЗ 6 н/о н/о +17.8 +11.4 66 +17 +17 1023.2 1018.1
10 24.05 Ю 6 н/о н/о +17.5 +11.1 66 +17 +17 1023.3 1018.2
12 24.05 ЮЗ 6 н/о н/о +17.8 +12.3 70 +17 +17 1024.0 1018.9
13 24.05 ЮЗ 6 н/о н/о +17.7 +12.6 72 +17 +17 1024.4 1019.3 +21.0
15 24.05 Ю 7 н/о н/о +18.2 +13.1 72 +18 +18 1024.0 1018.9
16 24.05 ЮВ 7 н/о н/о +17.2 +13.1 77 +16 +16 1023.8 1018.7
18 24.05 ЮВ 8 н/о н/о +16.6 +11.5 72 +15 +15 1023.9 1018.8
19 24.05 ЮВ 6 н/о н/о +16.4 +10.9 70 +15 +15 1024.0 1018.9
21 24.05 ЮВ 7 н/о н/о +16.0 +9.9 67 +14 +14 1024.1 1019.0
22 24.05 ЮВ 5 н/о н/о +15.2 +10.2 72 +14 +14 1024.6 1019.5
00 25.05 ЮВ 4 н/о н/о +14.5 +10.3 76 +13 +13 1026.2 1021.1
01 25.05 ЮВ 4 н/о н/о +15.4 +10.4 72 +15 +15 1026.3 1021.2 +14.3
03 25.05 ЮВ 4 н/о н/о +16.5 +10.6 68 +16 +16 1026.0 1020.9
04 25.05 ЮВ 5 н/о н/о +17.1 +10.0 63 +17 +17 1025.0 1019.9
06 25.05 Ю 5 н/о н/о +17.6 +10.2 62 +17 +17 1023.6 1018.5
07 25.05 Ю 6 н/о н/о +17.7 +10.8 64 +17 +17 1023.5 1018.4
09 25.05 Ю 8 н/о н/о +16.2 +10.9 71 +15 +15 1023.6 1018.5
10 25.05 Ю 8 н/о н/о +16.3 +11.5 73 +15 +15 1024.0 1018.9
12 25.05 Ю 8 н/о н/о +17.1 +11.8 71 +16 +16 1024.7 1019.6
13 25.05 Ю 8 н/о н/о +17.0 +11.7 71 +16 +16 1024.9 1019.8 +18.7
15 25.05 Ю 9 н/о н/о +16.5 +11.4 72 +15 +15 1024.5 1019.4
16 25.05 ЮВ 9 н/о н/о +15.8 +9.7 67 +14 +14 1024.3 1019.2

 

Местоположение метеостанции Остров Роттнест (Западная Австралия, Австралия): широта -32.02 долгота 115.50 высота над уровнем моря 43 м.

В архиве по умолчанию представлена погода на Острове Роттнест за последнюю неделю. Архивные данные за месяц целиком и за предыдущие месяцы, начиная с января 2011 года, Вы можете получить, выбрав интересующий диапазон дат из раскрывающегося списка и нажав кнопку "Ввод!".


*Определитесь, кто Вы:
робот инопланетянин человек

Внимание! Время в таблицах - всемирное. Для получения местного времени необходимо прибавить поправку, которая равна 8 ч.

Смотрите также архив погоды в соседних городах и на ближайших метеорологических станциях:

Погода в Суонборне (Западная Австралия, Австралия) (27 км)
Погода на Острове Гарден (Западная Австралия, Австралия) (29 км)
Погода в Ошен Риф (Западная Австралия, Австралия) (36 км)
Погода в Перт Монт-Лоули (Западная Австралия, Австралия) (37 км)
Погода в Перт Джандакот (Западная Австралия, Австралия) (37 км)
Погода в Перте (Западная Австралия, Австралия) (45 км)
Погода в Гусберри Хилл (Западная Австралия, Австралия) (52 км)
Погода в Мандуре (Западная Австралия, Австралия) (59 км)
Погода в Обсерватории Перт (Западная Австралия, Австралия) (59 км)
Погода в Буллсбрук Пирс (Западная Австралия, Австралия) (63 км)

Пояснения к столбцам:

Ветер - указаны скорость ветра в м/с - средняя за 10 мин, порывы в срок и между сроками (в фигурных скобках) и направление, откуда дует ветер: С - северный, СВ - северо-восточный, В - восточный, ЮВ - юго-восточный, Ю - южный, ЮЗ - юго-западный, З - западный, СЗ - северо-западный.
Видимость - горизонтальная дальность видимости в метрах или километрах. При видимости от 1 до 10 км при отсутствии осадков обычно наблюдается дымка, при ухудшении видимости до 1 км и менее - туман. В сухую погоду видимость может ухудшаться дымом, пылью или мглою.
Явления - указаны атмосферные явления, наблюдавшиеся в срок или в последний час перед сроком; фигурными скобками обозначены явления, наблюдавшиеся между сроками (за 1-3 часа до срока); квадратными скобками обозначены град или гололедные отложения с указанием их диаметра в мм.
Облачность - указаны через наклонную черту общая и нижняя облачность в баллах и высота нижней границы облаков в метрах; квадратными скобками обозначены формы облаков: Ci - перистые, Cs - перисто-слоистые, Cc - перисто-кучевые, Ac - высококучевые, As - высокослоистые, Sc - слоисто-кучевые, Ns - слоисто-дождевые, Cu - кучевые, Cb - кучево-дождевые. Подробнее классификацию облаков см. в Атласе облаков (PDF).
T - Температура воздуха - температура, измеренная на высоте 2 м над землей.
Td - Температура точки росы - температура, при понижении до которой содержащийся в воздухе водяной пар достигнет насыщения.
f - Относительная влажность воздуха - влажноcть воздуха, измеренная на высоте 2 м над землей.
Te - Эффективная температура - температура, которую ощущает одетый по сезону человек в тени. Характеристика душности погоды. При расчете учитывается влияние влажности воздуха и скорости ветра на теплоощущения человека.
Tes - Эффективная температура на солнце - температура, которую ощущает человек, с поправкой на солнечный нагрев. Характеристика знойности погоды. Зависит от высоты солнца над горизонтом, облачности и скорости ветра. Ночью, в пасмурную погоду, а также при ветре 12 м/с и более поправка равна нулю.
P - Атмосферное давление - приведенное к уровню моря атмосферное давление.
Po - Атмосферное давление - измеренное на уровне метеостанции атмосферное давление.
Tmin - Минимальная температура - минимум температуры воздуха на высоте 2 м над землей.
Tmax - Максимальная температура - максимум температуры воздуха на высоте 2 м над землей.
R - Количество осадков - Количество выпавших осадков за период времени, мм. При наведении курсора мыши на число - период времени, за который выпало указанное количество осадков.
R24 - Количество осадков - Количество выпавших осадков за 24 часа, мм.
S - Снежный покров - Высота снежного покрова, см. При наведении курсора мыши на число - состояние снежного покрова и степень покрытия местности в баллах.